                ,  0.301,  0.397,  0.494,  0.590,  0.687,  0.784,  0.880,  0.977,  1.073,  1.170,  1.267,  1.363,  1.460,  1.556,  1.653,  1.749,  1.846,  1.943,  2.039,  2.136,  2.232,  2.329,  2.426,  2.522,  2.619,  2.715,  2.812,  2.909,  3.005,  3.102,  3.198,  3.295,  3.392,  3.488,  3.585,  3.681,  3.778,  3.875,  3.971,  4.068,  4.164,  4.261,  4.357,  4.454,  4.551,  4.647,  4.744,  4.840,  4.937,  5.034,  5.130,  5.227,  5.323,  5.420,  5.517,  5.613,  5.710,  5.806,  5.903,  6.000,  6.096,  6.193,  6.289,  6.386,  6.483,  6.579,  6.676,  6.772,  6.869,  6.965,  7.062,  7.159,  7.255,  7.352,  7.448,  7.545,  7.642,  7.738,  7.835,  7.931
2011/10/15 00:00,  999.0,  999.0,    0.0,    0.8,    0.5,   -0.7,   -1.0,    0.6,  999.0,  999.0,  999.0,  999.0,  -51.8,  999.0,  999.0,  999.0,  999.0,    1.4,    1.9,    3.2,    3.8,    4.5,    5.7,  999.0,  999.0,  999.0,  -44.8,  -43.2,  -41.5,  -41.1,  -40.3,  -38.2,  -39.3,  999.0,  999.0,  999.0,  999.0,  999.0,  999.0,  999.0,  999.0,   21.1,   21.3,   21.3,   21.8,   22.8,   22.6,   23.1,   23.8,   24.4,   24.3,   23.8,   23.0,   23.4,   23.2,   24.7,  999.0,  999.0,    0.0,   -0.1,   -0.0,   -0.1,   -0.1,   -0.0,    0.0,    0.0,   -0.1,   -0.1,   -0.3,   -0.3,   -0.0,   -0.4,   -0.4,    0.1,    0.2,    0.2,  999.0,  999.0,  999.0,  999.0
2011/10/15 00:10,  999.0,  999.0,    0.1,    0.6,    0.5,    0.3,    1.3,  999.0,  999.0,  999.0,  -51.7,  -51.4,  -51.8,  -52.3,  -52.9,  -53.6,  -52.8,  -53.9,  -53.4,  -52.2,  -51.8,  -51.1,  -49.4,  -48.0,  -47.5,  -45.4,  -43.2,  -41.0,  -40.3,  -40.3,  -40.5,  999.0,  -37.9,  -39.9,  999.0,  999.0,  999.0,  999.0,  999.0,   20.6,   21.8,   22.9,   23.7,   23.9,   24.2,   24.6,   25.0,   24.8,   24.6,   24.0,   24.1,   23.6,   23.8,   23.6,   23.5,   24.3,   24.8,   26.4,   27.5,   28.1,   28.4,  999.0,  999.0,  999.0,  999.0,  999.0,   -0.1,    8.5,    6.5,   -0.0,  999.0,   -0.1,  999.0,  999.0,   -0.0,  999.0,  999.0,  999.0,  999.0,  999.0
2011/10/15 00:20,  999.0,  999.0,    1.1,    0.8,    0.9,  999.0,  999.0,  999.0,  999.0,  -50.8,  -50.2,  -50.0,  -50.4,  -51.5,  999.0,  999.0,  999.0,  -11.3,  -11.2,  -16.2,  -15.5,   -9.7,  999.0,  999.0,  999.0,  -46.5,  -46.1,  -44.1,  -42.0,  -41.0,  -41.1,  -39.7,  -39.5,  -39.5,  -36.3,  999.0,  999.0,  999.0,  999.0,   23.8,   23.7,   23.5,   24.4,   24.9,   25.1,   25.6,   25.9,   24.8,   23.6,   23.2,   22.4,   22.2,   22.9,   23.3,   23.7,   24.4,   25.4,   26.2,   27.3,   27.1,   28.0,   27.9,   27.2,   27.6,   27.4,   26.9,   26.6,   25.3,   24.4,  999.0,  999.0,  999.0,  999.0,  999.0,  999.0,  999.0,  999.0,  999.0,  999.0,  999.0
2011/10/15 00:30,  999.0,  999.0,    0.5,    0.5,    0.5,  999.0,  999.0,  999.0,  999.0,  -49.3,  -49.1,  -49.0,  -48.4,  -48.9,  -49.2,  -49.7,  -50.0,  -49.7,  -50.4,  -50.5,  999.0,  999.0,  999.0,  -46.4,  -45.9,  -45.2,  -44.7,  -43.7,  -41.6,  -37.9,  -38.6,  -36.5,  -37.0,  -39.7,  999.0,  999.0,  999.0,  999.0,  999.0,   22.2,   23.6,   23.4,   23.6,   23.7,   23.3,   23.2,   23.5,   23.6,   23.5,   23.6,   23.7,   23.7,   24.1,   25.5,   26.7,   26.7,   28.3,   27.7,   28.3,   27.7,   27.4,   26.7,   26.4,   27.1,   26.6,   27.0,  999.0,  999.0,  999.0,  999.0,  999.0,  999.0,  999.0,  999.0,  999.0,  999.0,  999.0,  999.0,  999.0,  999.0
2011/10/15 00:40,  999.0,    0.6,    0.6,    1.4,    2.9,  999.0,  999.0,  999.0,  -50.4,  -49.5,  -48.1,  -49.4,  -48.4,  -49.3,  -49.8,  -49.1,  -49.4,  -50.0,  -50.8,  -50.7,  -51.8,  -51.3,  -50.4,  -48.9,  -47.2,  -45.1,  -43.0,  -41.1,  -40.0,  -38.6,  -38.4,  -37.7,  -36.3,  -36.5,  -36.0,  -35.5,  999.0,  999.0,  999.0,  999.0,   22.2,   21.9,   22.0,   22.1,   22.1,   22.4,   22.5,   22.5,   22.8,   23.0,   23.4,   23.3,   23.8,   23.7,   25.2,   25.2,   24.1,  999.0,  999.0,  999.0,  999.0,   19.4,  999.0,  999.0,  999.0,  999.0,  999.0,  999.0,  999.0,  999.0,  999.0,  999.0,  999.0,  999.0,  999.0,  999.0,  999.0,  999.0,  999.0,  999.0
2011/10/15 00:50,  999.0,    0.3,    0.7,  999.0,  999.0,  999.0,  999.0,  -49.6,  -48.8,  -48.0,  -48.5,  -48.3,  -49.0,  -49.4,  -49.3,  -49.8,  -50.7,  -51.1,  -51.7,  -49.7,  -50.6,  -49.9,  -48.6,  -47.4,  -45.2,  -44.1,  -43.0,  -41.4,  -41.5,  -38.5,  -38.4,  -36.1,  -39.0,  -37.1,  -36.4,  999.0,  999.0,  999.0,  999.0,  999.0,   22.5,   22.0,   21.9,   21.7,   21.4,   21.5,   21.5,   21.2,   20.9,   21.5,   21.9,   21.9,   21.5,   21.2,   21.8,  999.0,  999.0,  999.0,  999.0,   18.9,  999.0,   18.0,  999.0,   22.5,   22.1,   24.2,   25.1,   25.3,   25.0,   23.8,   24.1,   23.9,   23.5,   23.6,   23.1,   23.5,   23.2,   23.4,   22.3,   21.6
2011/10/15 01:00,  999.0,    0.4,    1.4,    3.4,  999.0,  999.0,  999.0,  -48.6,  -48.2,  -46.3,  -45.9,  -46.5,  -48.1,  -48.8,  -49.3,  -49.1,  -48.9,  -47.9,  -47.7,  -47.5,  -47.7,  -47.8,  -47.6,  -46.3,  -44.7,  -44.6,  -42.5,  -41.7,  -40.7,  -38.9,  -41.1,  -41.6,  -39.5,  -38.9,  -38.2,  -38.1,  999.0,  999.0,  999.0,  999.0,  999.0,   21.8,   21.9,   21.3,   20.8,   20.4,   20.3,   20.0,   20.1,   20.2,   20.7,   21.4,   21.7,   22.9,   24.7,   25.2,   24.8,   18.7,   19.0,   18.9,   18.7,   18.3,   18.2,   18.4,   19.2,  999.0,  999.0,   19.3,  999.0,  999.0,  999.0,  999.0,  999.0,  999.0,  999.0,  999.0,  999.0,  999.0,  999.0,  999.0
2011/10/15 01:10,  999.0,    1.0,    2.0,    3.3,  999.0,  999.0,  -50.0,  -49.3,  -47.7,  -45.9,  -45.7,  -46.1,  -46.4,  -46.5,  -47.4,  -47.3,  -47.4,  -48.4,  -48.9,  -49.7,  -48.9,  -48.5,  -46.9,  -45.6,  -43.4,  -40.9,  -40.9,  -40.0,  -38.6,  -37.7,  -39.4,  999.0,  -36.0,  -37.9,  999.0,  999.0,  999.0,  999.0,  999.0,  999.0,   20.4,   21.5,   21.6,   21.4,   21.4,   21.6,   21.6,   21.8,   21.9,   22.1,   22.2,   22.4,   22.5,   22.8,   23.0,   23.0,   23.4,   22.4,  999.0,  999.0,   22.9,  999.0,  999.0,  999.0,  999.0,  999.0,  999.0,    0.2,    0.1,  999.0,  999.0,  999.0,  999.0,  999.0,  999.0,  999.0,  999.0,  999.0,  999.0,  999.0
2011/10/15 01:20,  999.0,  999.0,    1.5,    2.3,    3.8,  999.0,  999.0,  999.0,  999.0,  -46.4,  -46.5,  -47.7,  -47.6,  -47.3,  -47.7,  -48.7,  -49.3,  -49.0,  -48.8,  -47.7,  -47.3,  -46.6,  -45.3,  -43.0,  -41.6,  -39.4,  -38.9,  999.0,  999.0,  999.0,  999.0,  999.0,   21.8,   21.9,   21.0,   22.4,   22.0,   20.3,   21.6,   21.0,   22.8,   20.9,   20.6,   20.0,  999.0,   17.5,   17.8,  999.0,  999.0,    6.8,    0.2,    0.0,    0.1,   -0.1,   -0.1,    0.0,   -0.1,    0.0,    0.1,    0.1,    0.0,    0.1,    0.0,    0.1,    0.1,    0.1,   -0.1,   -0.0,    0.4,    0.1,    3.3,  999.0,    3.0,  999.0,  999.0,    1.7,  999.0,  999.0,  999.0,  999.0
2011/10/15 01:30,  999.0,  999.0,    0.6,    1.9,    1.0,  999.0,  999.0,  999.0,  999.0,  -49.0,  -48.1,  -48.4,  -48.0,  -47.7,  -48.1,  -49.6,  -48.9,  -47.7,  -46.9,  -46.1,  -45.3,  -44.1,  -40.9,  -38.9,  -38.5,  999.0,  999.0,  999.0,  999.0,   22.0,   23.5,   24.0,   24.1,   23.9,   23.1,   22.5,   21.4,   21.6,   19.6,   22.4,   24.1,   22.8,   22.7,   22.9,   22.9,   22.9,   22.5,   20.4,   21.9,   22.2,   23.2,   23.6,   24.3,   19.7,   17.8,   18.0,   17.8,   18.0,   18.1,   17.7,   18.2,   16.0,   26.0,   18.4,   13.6,    9.2,    9.1,   17.9,   26.1,   25.0,   24.3,   23.4,   22.5,   22.1,   21.4,   20.3,   20.4,   20.6,   20.1,   20.3
2011/10/15 01:40,  999.0,  999.0,    2.9,  999.0,  -51.3,  -50.5,  -49.0,  -50.3,  -48.5,  -48.3,  -46.9,  -47.1,  -47.5,  -47.8,  -48.3,  -48.8,  -47.9,  -46.3,  -44.9,  -43.6,  -41.5,  -39.4,  -38.2,  -37.5,  -36.4,  -35.2,  -34.6,  999.0,  -33.0,  999.0,  -33.8,    8.5,  -32.6,  -31.1,  -33.6,  -31.9,  999.0,  999.0,  999.0,  999.0,   24.6,   24.9,   24.7,   24.6,   24.9,   25.0,   25.2,   25.0,   25.2,   25.5,   25.1,   24.3,   25.0,   25.1,   25.4,   25.4,   25.4,   25.7,   26.1,   25.5,   25.8,   25.3,   24.8,   24.3,   23.7,   23.9,   24.5,   24.9,   23.1,   23.9,   23.8,   23.5,   23.0,   23.1,   22.8,   23.3,   23.2,   23.9,   23.4,   22.4
2011/10/15 01:50,  999.0,    0.2,    1.6,  999.0,  999.0,  -48.8,  -49.9,  -49.4,  -49.5,  -47.4,  -46.5,  -46.9,  -47.8,  -48.7,  -49.0,  -47.1,  -44.7,  -42.5,  -41.0,  -40.5,  -39.7,  -38.6,  -38.6,  -38.5,  -37.4,  -36.0,  -35.7,  -34.2,  -34.8,  -20.3,  -20.0,  -19.4,  -19.5,  -19.6,  -34.3,  -34.5,  999.0,   23.6,  999.0,  999.0,   23.8,   23.9,   24.4,   24.6,   24.4,   23.5,   22.9,   22.5,   22.9,   23.6,   24.3,   23.9,   23.6,   23.3,   23.3,   23.8,   24.0,   24.5,   24.8,   24.4,   24.6,   24.6,   24.3,   24.4,   24.0,   24.3,   24.5,   24.6,   24.6,   24.5,   24.3,   24.4,   24.7,   24.9,   24.4,   24.5,   24.4,   24.8,   24.9,   24.5
2011/10/15 02:00,  999.0,  999.0,    2.2,    4.3,  999.0,  999.0,  999.0,  999.0,  -50.4,  -48.1,  -47.3,  -47.8,  -48.9,  -48.3,  -47.3,  -45.6,  -43.6,  -42.0,  -41.2,  -40.1,  -39.3,  -37.8,  -36.5,  -35.3,  999.0,  999.0,  999.0,   22.0,   21.3,   21.0,   20.5,   20.4,   20.1,   20.7,   20.8,   20.4,   20.5,   18.9,   19.3,   22.3,   22.7,   22.1,   22.6,   22.1,   22.4,   22.9,   23.0,   23.2,   24.0,   24.7,   24.5,   24.5,   23.8,   23.5,   24.2,   24.5,   25.9,   26.1,   26.5,   25.7,   25.1,   25.1,   25.1,   25.0,   26.4,   25.2,   25.2,   25.7,   25.7,   25.9,   27.3,   26.7,   27.3,   27.3,   27.2,   26.9,   27.0,  999.0,   26.8,  999.0
2011/10/15 02:10,  999.0,  999.0,    2.8,    3.8,    3.2,  999.0,  999.0,  999.0,  -50.2,  -49.5,  -49.1,  -49.3,  -49.1,  -48.9,  -48.5,  -47.7,  -46.4,  -43.8,  -42.5,  -42.0,  -41.3,  -41.0,  -39.8,  -38.4,  -38.7,  -39.1,  -38.8,  -38.0,    0.5,   18.8,   19.1,   18.5,   17.9,   17.6,   22.4,   25.0,   23.1,   21.1,   21.1,   21.0,   21.5,   22.2,   22.5,   22.7,   23.2,   24.0,   23.9,   23.8,   23.6,   23.6,   23.2,   22.9,   23.0,   23.5,   23.8,   21.1,   21.2,   20.2,   22.7,   23.4,   24.1,   24.2,   24.8,   26.0,   26.5,   26.8,   18.6,   13.7,   15.8,    0.1,   -0.1,    0.2,    0.0,  999.0,  999.0,  999.0,  999.0,  999.0,  999.0,  999.0
2011/10/15 02:20,  999.0,  999.0,    2.4,    3.5,    4.1,  999.0,  999.0,  999.0,  -49.5,  -49.0,  -48.6,  -48.4,  -48.7,  -49.2,  -48.5,  -47.7,  -47.0,  -45.0,  -41.8,  -41.3,  -40.8,  999.0,  999.0,  999.0,  999.0,  999.0,   18.4,   17.6,   17.6,   15.2,   15.6,   16.4,   14.8,   21.5,   15.0,   22.4,   23.0,   23.3,   23.1,   24.0,   22.7,   12.7,   13.1,    9.7,   13.0,   14.3,   21.1,   14.0,    9.8,    1.6,   -0.2,    4.4,   11.6,  999.0,  999.0,   -0.0,    0.1,   -0.1,   -0.1,   -0.1,    0.0,   -0.2,   -0.3,   -0.1,   -0.1,    0.0,    0.0,   -0.0,    0.1,    0.0,    0.0,    0.2,   -0.1,   -0.0,  999.0,  999.0,  999.0,  999.0,  999.0,  999.0
2011/10/15 02:30,  999.0,    1.8,    2.3,    2.3,  999.0,  999.0,  999.0,  -49.4,  -48.0,  -48.1,  -47.1,  -47.5,  -47.9,  -48.0,  -47.5,  -47.2,  -46.3,  -44.4,  -42.2,  -40.9,  -40.1,  -39.2,  999.0,  999.0,  999.0,  999.0,  999.0,   19.5,   19.9,   19.1,   19.3,   20.3,   20.2,   20.9,   20.0,   20.6,  999.0,  999.0,   18.6,   16.9,   22.8,   22.7,   22.4,   21.7,   21.5,   21.7,   21.2,   21.5,   22.1,   23.4,   24.5,   24.0,   22.8,   19.9,   19.1,   19.4,   19.1,   19.3,  999.0,  999.0,  999.0,  999.0,    0.3,    0.0,    0.0,   -0.0,   -0.1,   -0.0,   -0.0,    0.0,    0.3,   -0.1,   -0.7,  999.0,    0.0,  999.0,  999.0,  999.0,  999.0,    0.0
2011/10/15 02:40,  999.0,    0.4,    1.0,    2.0,    1.5,  999.0,  999.0,  999.0,  999.0,  -46.9,  -45.4,  -46.8,  -47.3,  -48.4,  -47.7,  -46.6,  -46.8,  -44.7,  -42.0,  -41.1,  -41.8,  -40.2,  -38.9,  -39.2,  -39.8,  -38.6,  -36.0,  -35.6,  -36.3,  -34.7,  -34.7,  -37.8,  -32.6,  999.0,  999.0,  999.0,  -36.0,  999.0,  999.0,  999.0,  999.0,   22.5,   22.8,   22.4,   22.4,   22.4,   22.4,   22.5,   22.6,   22.4,   22.3,   22.7,   22.3,   21.4,   21.4,   20.8,   20.5,   20.5,   18.8,   18.8,   18.9,  999.0,    0.1,   -0.0,   -0.1,   -0.0,   -0.1,    0.1,   -0.1,    0.1,   -0.0,    0.2,    0.1,    0.1,  999.0,    0.1,  999.0,  999.0,  999.0,  999.0
2011/10/15 02:50,  999.0,   -1.0,    0.0,    2.0,    2.4,  999.0,  999.0,  999.0,  -49.4,  -47.9,  -47.9,  -48.1,  -49.5,  -49.7,  -48.4,  -48.1,  -48.6,  -47.3,  -44.3,  -42.3,  -41.5,  -40.4,  -39.8,  -40.0,  -38.7,  -37.8,  -37.4,  -36.1,  -33.1,  -32.9,  -32.3,  -24.5,   -6.1,   -5.6,   -4.8,   -3.3,   -4.7,    8.7,   17.7,  999.0,   24.3,   24.1,   23.2,   23.3,   23.9,   24.4,   24.7,   24.8,   25.1,   24.6,   24.5,   24.9,   24.8,   24.8,   24.4,   24.4,  999.0,  999.0,  999.0,  999.0,   20.7,   19.2,  999.0,  999.0,  999.0,    0.4,    3.5,    3.2,    4.1,    0.7,  999.0,  999.0,  999.0,  999.0,  999.0,  999.0,  999.0,  999.0,  999.0,  999.0
2011/10/15 03:00,  999.0,    0.5,    1.5,    2.9,    3.2,    4.5,  999.0,  999.0,  999.0,  999.0,  999.0,  -49.0,  -49.7,  -50.2,  -50.3,  -48.9,  -48.3,  -47.1,  -45.1,  -42.5,  -40.6,  -40.0,  -40.2,  -39.8,  -37.9,  -37.5,  -36.2,  -35.7,  -35.0,  -34.1,  -33.9,  999.0,  999.0,  999.0,   24.5,   25.2,   24.9,   25.1,   23.0,   21.7,   24.3,   24.2,   24.0,   22.9,  999.0,  999.0,  999.0,  999.0,    5.1,    0.2,    0.2,    0.1,    0.2,    0.1,    0.2,    0.3,    0.2,    0.1,    0.2,    0.1,    0.1,    0.2,    0.1,    0.1,   -0.0,    0.0,    0.3,    0.0,   -0.1,    0.1,   -0.1,    0.2,   -0.2,   -0.0,    0.2,   -0.1,  999.0,  999.0,   -0.2,  999.0
2011/10/15 03:10,  999.0,    0.5,   -0.9,    0.6,    0.2,  999.0,  999.0,  999.0,  -14.7,  999.0,  -35.8,  -39.7,  -49.3,  -48.8,  -47.8,  -46.5,  -45.7,  -44.6,  -41.8,  -40.2,  -39.6,  -38.5,  -38.4,  -37.8,  -35.9,  -36.7,  -35.1,  -34.5,  -34.1,  -33.1,  -32.0,  -33.1,  999.0,  999.0,  999.0,  999.0,  999.0,   20.3,   20.7,   19.5,   24.1,   25.6,   24.0,   26.0,   26.1,   26.4,   25.4,   26.8,   24.7,   24.8,   23.6,   24.0,   22.4,   22.8,  999.0,  999.0,  999.0,    0.0,    0.1,    0.2,  999.0,    0.1,    0.2,    0.3,    0.1,    0.0,   -0.1,    0.2,    0.1,    0.0,   -0.0,   -0.2,    0.0,   -0.2,    0.3,  999.0,  999.0,  999.0,  999.0,  999.0
